sat.trackr.live / text

‹ back to catalog

STARLINK-31836

NORAD 59724 · 2024-088S

PAYLOAD ACTIVE UNKNOWN

§ Identity

Operator
Country
US
Launch date
2024-05-10
Launch site
AFWTR
Launch vehicle
Mass (kg)
RCS (m²)

Purposes: comms

External: N2YO · Heavens-Above · Gunter

§ Orbital elements

Epoch: 2026-05-24T23:14:53.589120Z

Period
94.01 min
Inclination
53.1600°
Eccentricity
0.0000952
Mean motion
15.31710149 rev/d
Perigee alt
470.1 km
Apogee alt
471.4 km
Semi-major
6,848.8 km
B*
6.2698e-5
RAAN
145.4043°
Arg perigee
69.2440°
Mean anomaly
290.8664°
Rev number
11,536

§ Raw data

STARLINK-318361 59724U 24088S   26144.96867580  .00001582  00000+0  62698-4 0  99952 59724  53.1600 145.4043 0000952  69.2440 290.8664 15.31710149115369

JSON: /api/v1/satellites/59724 · /tle

For live sub-satellite position, see the globe view (requires WebGL).

§ Visibility from observer

Set your observer location to see the next 7 days of passes ≥ 10°. The values pass through the URL so the page stays shareable.

No JS? Fill the form by hand. The geolocation button needs JavaScript.